Retour au catalogue

STARLINK-32801

ActifCommunicationsVLEO
NORAD 63035·PAYLOAD·🇺🇸 United States

Lancé Feb 18, 2025 depuis Cape Canaveral Space Force Station

Loading…

Prochains Passages (prochaines 24 heures)

TLE

FraisSource: CelesTrak SupGP

Époque: Sep 14, 2026, 22:29 UTC

1 63035C 25034G   26257.93729167  .00037749  00000+0  11151-2 0  2574
2 63035  53.1586  95.5093 0001269  82.5339 218.1671 15.34375871    17

Suivez STARLINK-32801 en temps réel avec AllMySat

Download on the App Store